PST,Max TemperatureF,Mean TemperatureF,Min TemperatureF,Max Dew PointF,MeanDew PointF,Min DewpointF,Max Humidity, Mean Humidity, Min Humidity, Max Sea Level PressureIn, Mean Sea Level PressureIn, Min Sea Level PressureIn, Max VisibilityMiles, Mean VisibilityMiles, Min VisibilityMiles, Max Wind SpeedMPH, Mean Wind SpeedMPH, Max Gust SpeedMPH,PrecipitationIn, CloudCover, Events, WindDirDegrees
2013-2-1,54,44,34,45,41,32,100,83,66,30.38,30.34,30.28,10,5,0,10,2,13,0.00,5,Fog,308
2013-2-2,55,43,30,40,34,30,100,77,54,30.32,30.30,30.26,10,3,0,12,2,15,0.01,3,Fog,319
2013-2-3,46,39,32,41,39,31,93,88,82,30.36,30.30,30.25,10,5,0,5,1,7,0.00,7,Fog,208
2013-2-4,52,46,39,42,40,37,100,82,63,30.24,30.12,29.96,10,7,2,8,1,10,0.00,5,,159
2013-2-5,51,47,43,43,41,39,89,78,66,30.06,29.97,29.94,10,10,2,14,6,18,0.10,7,Rain,166
2013-2-6,51,48,44,41,39,37,83,71,59,30.11,30.03,29.86,10,10,10,16,7,24,0.05,7,Rain,147
2013-2-7,50,40,30,37,35,29,92,72,52,30.17,30.04,29.95,10,10,10,10,3,16,0.01,5,Rain,166
2013-2-8,48,37,26,36,31,25,92,73,53,30.30,30.25,30.17,10,8,1,12,3,16,0.00,5,,84
2013-2-9,45,38,30,41,37,29,96,86,76,30.31,30.29,30.27,10,9,7,5,1,7,0.00,7,,132
2013-2-10,49,41,33,40,36,32,100,80,60,30.37,30.33,30.31,10,6,0,9,3,12,0.00,7,Fog,296
2013-2-11,46,44,41,42,38,34,96,81,65,30.40,30.38,30.34,10,7,2,9,2,10,0.01,8,,136
2013-2-12,54,49,43,45,43,41,96,81,66,30.48,30.43,30.40,10,9,2,8,1,10,0.01,8,,193
2013-2-13,53,46,39,45,42,37,93,76,59,30.52,30.46,30.42,10,8,1,8,2,13,0.02,8,Rain,301
2013-2-14,50,42,34,43,38,33,92,83,74,30.58,30.54,30.51,10,10,7,8,1,10,0.00,6,,289
2013-2-15,60,49,38,43,39,37,100,76,51,30.51,30.39,30.20,10,7,0,10,2,14,0.00,4,Fog,136
2013-2-16,51,43,35,44,39,34,96,79,61,30.29,30.25,30.22,10,9,3,12,4,17,0.03,6,Rain,75
2013-2-17,47,40,32,36,34,29,96,78,60,30.31,30.24,30.12,10,10,10,8,2,10,0.00,6,,109
2013-2-18,47,39,31,36,33,28,92,73,53,30.10,29.96,29.76,10,10,10,12,4,17,0.02,6,Rain,126
2013-2-19,54,44,34,39,35,32,92,69,45,30.01,29.80,29.72,10,10,10,13,4,21,0.05,4,Rain,76
2013-2-20,48,39,29,38,35,29,96,79,61,30.10,30.06,30.02,10,10,6,10,2,16,0.03,7,Rain,182
2013-2-21,46,43,40,38,37,36,86,81,76,30.19,30.16,30.10,10,10,7,12,5,20,0.05,8,Rain,186
2013-2-22,49,44,38,43,38,34,86,79,71,30.17,30.04,29.89,10,10,6,18,7,28,0.36,7,Rain,198
2013-2-23,47,41,34,37,34,31,85,76,67,30.45,30.29,30.09,10,10,5,18,4,28,0.06,6,Rain,258
2013-2-24,51,44,36,37,34,30,92,68,44,30.44,30.31,30.06,10,10,10,15,5,22,T,8,Rain,136
2013-2-25,50,42,34,39,36,32,92,74,56,30.40,30.20,30.02,10,10,8,20,6,25,0.09,7,Rain,246
2013-2-26,49,41,33,37,35,31,96,76,56,30.40,30.34,30.26,10,10,9,12,4,14,0.01,4,,125
2013-2-27,52,47,42,45,39,36,93,76,59,30.31,30.28,30.25,10,9,2,9,5,13,0.09,8,Rain,113
2013-2-28,57,51,45,52,47,44,100,89,77,30.43,30.28,30.21,10,8,2,13,6,18,0.17,8,Rain,150